Location: ČR
(50.0000°N, 15.0000°E)
Time: 10:57:09
(UTC+02:00)

A-11 Canister half - Pass Details

Date: 18 March 2026
Orbit: 1514 x 1685 km, 47.2° (Epoch: 16 April)

Event Time Altitude Azimuth Distance (km) Brightness Sun altitude
Rises 10:47:38 0° 172° (S) 4,785 12.5 36.3°
Reaches altitude 10° 10:52:59 10° 148° (SSE) 3,844 12.4 36.7°
Maximum altitude 10:57:05 13° 123° (ESE) 3,607 11.9 36.9°
Drops below altitude 10° 11:01:12 10° 98° (E) 3,904 11.6 37.2°
Sets 11:06:41 0° 74° (ENE) 4,923 11.7 37.5°
